Weather History for Clinton-Sherman, OK

Change the Weather History Date:

Friday, November 30, 2012

  Actual Average Record
Temperature  
Mean Temperature 52 °F -  
Max Temperature 64 °F 53 °F 71 °F (1998)
Min Temperature 39 °F 33 °F 19 °F (2006)
Degree Days  
Heating Degree Days 14    
Growing Degree Days 2 (Base 50)    
Moisture  
Dew Point 43 °F    
Average Humidity 80    
Maximum Humidity 100    
Minimum Humidity 42    
Precipitation  
Precipitation 0.00 in - - ()
Sea Level Pressure  
Sea Level Pressure 29.99 in    
Wind  
Wind Speed 10 mph (SSE)    
Max Wind Speed 17 mph    
Max Gust Speed -    
Visibility 6 miles    
Events Fog , Rain    
Averages and records for this station are not official NWS values.
T = Trace of Precipitation, MM = Missing Value Source: NWS Daily Summary

Daily Weather History Graph

Daily Weather History Graph

Search for Another Location

Airport:

Trip Planner

Search our weather history database for the weather conditions in past years. The results will help you decide how hot, cold, wet, or windy it might be!

Date:

Astronomy

Nov. 30, 2012 Rise Set
Actual Time 7:26 AM CST 5:24 PM CST
Civil Twilight 6:58 AM CST 5:52 PM CST
Nautical Twilight 6:27 AM CST 6:23 PM CST
Astronomical Twilight 5:56 AM CST 6:54 PM CST
Moon 7:20 PM CST (11/30) 9:00 AM CST (11/30)
Length of Visible Light 10h 53m
Length of Day
9h 57m
Waning Gibbous, 96% of the Moon is Illuminated
Nov 30
Waning Gibbous
Dec 6
Last Quarter
Dec 13
New
Dec 19
First Quarter
Dec 28
Full

Hourly Weather History & Observations

Time (CST) Temp. Windchill Dew Point Humidity Pressure Visibility Wind Dir Wind Speed Gust Speed Precip Events Conditions
12:53 AM 52.0 °F - 46.0 °F 80% 29.99 in 10.0 mi South 16.1 mph - N/A   Clear
1:53 AM 50.0 °F - 46.0 °F 86% 29.98 in 10.0 mi South 15.0 mph - N/A   Clear
2:53 AM 48.9 °F - 45.0 °F 86% 29.98 in 9.0 mi South 13.8 mph - N/A   Clear
3:53 AM 46.9 °F - 44.1 °F 90% 29.98 in 7.0 mi South 10.4 mph - N/A   Clear
4:53 AM 44.1 °F 39.0 °F 43.0 °F 96% 29.99 in 5.0 mi SE 9.2 mph - N/A   Clear
5:15 AM 42.8 °F 38.0 °F 41.0 °F 93% 30.01 in 2.5 mi SE 8.1 mph - N/A   Clear
5:29 AM 39.2 °F 33.6 °F 39.2 °F 100% 30.01 in 1.5 mi SE 8.1 mph - N/A   Partly Cloudy
5:31 AM 39.2 °F 34.2 °F 39.2 °F 100% 30.01 in 0.8 mi SE 6.9 mph - N/A   Mist
5:38 AM 41.0 °F 35.8 °F 39.2 °F 93% 30.01 in 0.2 mi SE 8.1 mph - N/A Fog Fog
5:51 AM 39.2 °F 33.0 °F 39.2 °F 100% 30.01 in 0.2 mi SE 9.2 mph - N/A Fog Fog
5:53 AM 39.9 °F 33.9 °F 39.0 °F 97% 30.00 in 0.2 mi SE 9.2 mph - N/A Fog Fog
6:53 AM 42.1 °F 37.1 °F 41.0 °F 96% 30.02 in 0.2 mi SE 8.1 mph - 0.00 in Fog Fog
7:53 AM 44.1 °F 40.8 °F 44.1 °F 100% 30.03 in 0.2 mi SE 5.8 mph - 0.00 in Fog , Rain Light Rain
8:53 AM 46.0 °F 44.8 °F 46.0 °F 100% 30.04 in 0.2 mi SE 3.5 mph - 0.00 in Fog Fog
9:42 AM 48.2 °F - 48.2 °F 100% 30.05 in 0.2 mi East 4.6 mph - N/A Fog Fog
9:53 AM 48.9 °F - 48.0 °F 97% 30.04 in 0.2 mi East 4.6 mph - N/A Fog Fog
10:38 AM 50.0 °F - 48.2 °F 94% 30.04 in 1.0 mi East 5.8 mph - N/A   Overcast
10:43 AM 50.0 °F - 48.2 °F 94% 30.04 in 3.0 mi East 5.8 mph - N/A   Mostly Cloudy
10:53 AM 50.0 °F - 48.9 °F 96% 30.03 in 6.0 mi ESE 5.8 mph - N/A   Scattered Clouds
11:53 AM 61.0 °F - 46.9 °F 60% 30.00 in 10.0 mi SSE 8.1 mph - N/A   Clear
12:53 PM 63.0 °F - 46.9 °F 56% 29.98 in 10.0 mi South 9.2 mph - N/A   Clear
1:53 PM 63.0 °F - 48.0 °F 58% 29.97 in 10.0 mi South 9.2 mph - N/A   Clear
2:53 PM 64.0 °F - 45.0 °F 50% 29.94 in 10.0 mi South 12.7 mph - N/A   Clear
3:53 PM 64.9 °F - 44.1 °F 47% 29.94 in 10.0 mi South 10.4 mph - N/A   Clear
4:53 PM 61.0 °F - 37.9 °F 42% 29.94 in 10.0 mi South 9.2 mph - N/A   Clear
5:53 PM 50.0 °F - 34.0 °F 54% 29.97 in 10.0 mi South 6.9 mph - N/A   Clear
6:53 PM 46.9 °F - 34.0 °F 61% 29.97 in 10.0 mi SW 8.1 mph - N/A   Clear
7:53 PM 48.0 °F - 34.0 °F 58% 29.96 in 10.0 mi SSW 6.9 mph - N/A   Clear
8:53 PM 48.9 °F - 33.1 °F 54% 29.95 in 10.0 mi SE 6.9 mph - N/A   Clear
10:53 PM 55.9 °F - 46.0 °F 69% 29.92 in 10.0 mi South 16.1 mph - N/A   Clear
11:53 PM 55.0 °F - 46.9 °F 74% 29.90 in 10.0 mi SSE 17.3 mph - N/A   Clear